Simultaneous Nadir Overpasses (SNOs) Predictions

Prediction of SNOs between GOES-14 and AQUA Satellite Orbit:

Table of predicted SNOs for the next 14.0 days since TLE Epoch: 3/29/2019
Index Date Time (GOES-14) GOES-14 Lat,Lon AQUA Lat,Lon Distance(km) Time Diff (sec)
1 03/29/2019 20:51:29 -0.11,-104.33 -0.95,-108.42 464.86 80
2 03/31/2019 08:17:56 0.11,-104.41 -0.79,-100.28 469.55 80
3 03/31/2019 20:39:18 -0.11,-104.33 -0.36,-105.46 128.87 80
4 04/02/2019 20:24:29 -0.12,-104.33 0.29,-102.51 207.23 80
5 04/03/2019 08:45:44 0.11,-104.40 0.84,-107.67 372.26 80
6 04/05/2019 08:33:34 0.12,-104.41 0.18,-104.72 35.64 80
7 04/07/2019 08:24:03 0.12,-104.41 -0.42,-101.76 300.81 80
8 04/07/2019 20:45:27 -0.11,-104.36 -0.66,-106.95 295.14 80
9 04/09/2019 20:30:36 -0.12,-104.35 -0.06,-103.99 40.62 80
10 04/11/2019 20:18:25 -0.12,-104.35 0.55,-101.04 376.12 80
11 04/12/2019 08:39:42 0.12,-104.39 0.51,-106.20 205.87 80




NCC Satellite Simultaneous Nadir Overpasses (SNOs) Prediction Service
